Regional Weather Roundup
Issued by NWS

Home | Current Version | Previous Version | Graphics & Text | Print | Product List | Glossary On
Versions: 1 2 3 4 5 6 7 8 9 10 11 12 13 14 15 16 17 18 19 20 21 22 23 24 25 26 27 28 29 30 31 32 33 34 35 36 37 38 39 40 41 42 43 44 45 46 47 48 49 50
000
ASUS43 KIND 221109
RWRIN

WEATHER ROUNDUP FOR INDIANA
NATIONAL WEATHER SERVICE INDIANAPOLIS IN
700 AM EDT TUE AUG 22 2017

NOTE: "FAIR" INDICATES FEW OR NO CLOUDS BELOW 12,000 FEET WITH NO
SIGNIFICANT WEATHER AND/OR OBSTRUCTIONS TO VISIBILITY.

* - STATION DOES NOT REPORT WEATHER SUCH AS PRECIPITATION OR FOG.

+ - STATION NOT QUALITY CONTROLLED BY THE NATIONAL WEATHER SERVICE.
    USE DATA WITH CAUTION...ESPECIALLY DEWPOINT AND RELATIVE
    HUMIDITY OBSERVATIONS.

INZ001>003-010>013-019-020-221200-
NORTHWEST INDIANA

CITY           SKY/WX    TMP DP  RH WIND       PRES   REMARKS
GARY /AIRPORT/ LGT RAIN  72  68  88 SW9       29.89S
KNOX *+        CLOUDY    68  68 100 SW12      29.93R
LA PORTE +     LGT RAIN  69  67  94 SW10      29.90S
MICHIGAN CITY+ RAIN      68  68 100 SW7       29.88F
MONTICELLO +   RAIN      67  66  96 NW7       29.92F
RENSSELAER +   RAIN      68  63  83 SW5       29.94F
VALPARAISO     LGT RAIN  71  70  96 SW9       29.91S FOG

$$

LMZ046-743>745-221200-
SOUTHERN LAKE MICHIGAN

STATION/POSITION TIME  TEMP    WIND        PRES    WAVE
                       AIR SEA DIR/SP/G            HT
                 (UTC) (F)     (DEG/KT/KT) (MB)    (FT)
BURNS HARBOR     1040   72     230/ 13/ 17 1012.2F
MICHIGAN CITY    1040   72     220/ 19/ 21   N/A
5NW MICH CITY    1100   72 74  240/ 16/ 21   N/A     4

$$

INZ004-005-014>016-021>024-221200-
NORTH CENTRAL INDIANA

CITY           SKY/WX    TMP DP  RH WIND       PRES   REMARKS
ELKHART        RAIN      70  68  94 SW17      29.90
GOSHEN         LGT RAIN  70  66  87 SW18G24   29.90F
LOGANSPORT +   LGT RAIN  68  66  94 W8        29.94S
PERU/GRISSOM   HVY RAIN  68  68 100 W9        29.94R FOG
ROCHESTER +    HVY RAIN N/A N/A N/A W9        29.94R
SOUTH BEND     LGT RAIN  69  69 100 SW12      29.89S
WARSAW +       LGT RAIN  68  68 100 W10       29.91F

$$

INZ006>009-017-018-025>027-221200-
NORTHEAST INDIANA

CITY           SKY/WX    TMP DP  RH WIND       PRES   REMARKS
AUBURN +       LGT RAIN  70  66  88 SW8       29.90F
FORT WAYNE     LGT RAIN  70  68  93 SW7       29.91F
HUNTINGTON +   CLOUDY    69  68  96 W7        29.91F

$$

INZ028-029-035-036-043>045-051>053-221200-
WEST CENTRAL INDIANA

CITY           SKY/WX    TMP DP  RH WIND       PRES   REMARKS
GREENCASTLE +  CLOUDY    72  70  94 SW3       29.94F
LAFAYETTE      CLOUDY    67  67 100 CALM      29.94S
TERRE HAUTE    PTCLDY    75  71  87 SW9       29.93S

$$

INZ030>032-037>040-046>048-054>057-064-065-221200-
CENTRAL INDIANA

CITY           SKY/WX    TMP DP  RH WIND       PRES   REMARKS
CP ATTERBURY + PTCLDY    73  70  88 SW5       29.96S
COLUMBUS       CLEAR     72  68  88 S8        29.97
FRANKFORT +    HVY RAIN  71  69  94 CALM      29.97R
GREENWOOD *+   PTCLDY   N/A N/A N/A S5        29.96S
INDIANAPOLIS   CLOUDY    74  71  91 SW10      29.93S
-EAGLE CREEK   MOCLDY    74  70  87 W5        29.94R
KOKOMO +       LGT RAIN  70  68  93 W14       29.96R
MARION +       CLOUDY    70  68  94 CALM      29.94F
MT COMFORT *+  PTCLDY    70  68  94 S3        29.96R
SHELBYVILLE    PTCLDY    73  67  81 S7        29.95S
ZIONSVILLE +   CLOUDY    71  70  96 CALM      29.95F

$$

INZ033-034-041-042-049-050-058-059-221200-
EAST CENTRAL INDIANA

CITY           SKY/WX    TMP DP  RH WIND       PRES   REMARKS
MUNCIE         MOCLDY    76  69  79 W6        29.94S
RICHMOND +     CLEAR     70  68  94 SW12      29.97F

$$

INZ060-061-067>069-081>083-085>088-221200-
SOUTHWEST INDIANA

CITY           SKY/WX    TMP DP  RH WIND       PRES   REMARKS
EVANSVILLE     PTCLDY    74  72  93 SW7       29.99R
HUNTINGBURG +  PTCLDY    73  72  96 MISG      30.00R
WASHINGTON +   PTCLDY    74  73  93 MISG      29.96S

$$

INZ062-063-066-070>080-084-089>092-221200-
SOUTH CENTRAL AND SOUTHEAST INDIANA

CITY           SKY/WX    TMP DP  RH WIND       PRES   REMARKS
BEDFORD +      PTCLDY    72  68  88 S3        29.97S
BLOOMINGTON    PTCLDY    76  71  85 SW8       29.96F
MADISON *+     CLOUDY    72  68  88 S5        30.02S
NORTH VERNON + PTCLDY    72  68  88 S8        29.98F
SEYMOUR +      PTCLDY    75  68  78 S6        29.98S

$$





USA.gov is the U.S. government's official web portal to all federal, state and local government web resources and services.